Location: Majestic Skies Ranch
(34.0000°N, 105.9300°W)
Time: 08:25:38
(UTC-06:00)

ISS - Visible Passes

Search period start: 30 October 2014 00:00
Search period end: 08 November 2014 23:00
Orbit: 412 x 417 km, 51.6° (Epoch: 30 October)

Date Brightness Start Highest point End Pass type
(mag) Time Alt. Az. Time Alt. Az. Time Alt. Az.
30 Oct -0.1 19:09:30 10° W 19:11:22 14° SW 19:13:15 10° SSW visible
06 Nov -0.5 05:52:43 10° S 05:55:23 23° SE 05:58:03 10° ENE visible
07 Nov 0.0 05:04:54 10° SSE 05:06:09 12° SE 05:07:23 10° ESE visible
08 Nov -3.2 05:49:42 10° SW 05:53:00 80° SE 05:56:18 10° NE visible
